Weather reports worldwide

Advertisment
Jaen, Spain (8417): temperature & dewpoint: 16.03.2019 18:00:00 - 22.03.2019 18:00:00 (CET)Jaen, Spain (8417): wind speed: 16.03.2019 18:00:00 - 22.03.2019 18:00:00 (CET)Jaen, Spain (8417): wind direction: 16.03.2019 18:00:00 - 22.03.2019 18:00:00 (CET)Jaen, Spain (8417): reduced air pressure: 16.03.2019 18:00:00 - 22.03.2019 18:00:00 (CET)Jaen, Spain (8417): visibility: 16.03.2019 18:00:00 - 22.03.2019 18:00:00 (CET)Jaen, Spain (8417): precipitation: 16.03.2019 18:00:00 - 22.03.2019 18:00:00 (CET)
Date & Time tt [°C] td [°C] ff [km/h] ff [kn] dd ppp [hPa] vv [km] rr [mm]
22.03.2019 18:00:00 17,3 -2,9 9 5 NNW 1021,3 20 0,0
22.03.2019 17:00:00 17,8 -3,1 5 3 NNE 1021,4 20 0,0
22.03.2019 16:00:00 18,9 -3,9 8 4 NE 1021,5 20 -
22.03.2019 15:00:00 18,5 -3,6 11 6 NNE 1022,0 20 0,0
22.03.2019 14:00:00 17,4 -4,6 8 4 NE 1022,9 20 0,0
22.03.2019 13:00:00 16,6 -2,5 8 4 E 1023,7 20 -
22.03.2019 12:00:00 15,2 -3,2 8 4 N 1024,6 20 0,0
22.03.2019 11:00:00 13,8 -2,6 5 3 E 1025,1 20 0,0
22.03.2019 10:00:00 10,7 -1,1 4 2 NE 1026,2 20 -
22.03.2019 09:00:00 8,0 -1,8 4 2 N 1026,8 20 0,0
22.03.2019 08:00:00 6,4 -2,2 5 3 NW 1027,0 20 0,0
22.03.2019 07:00:00 7,4 -3,2 9 5 SE 1026,1 20 -
22.03.2019 06:00:00 7,6 -3,6 5 3 S 1026,2 20 0,0
22.03.2019 05:00:00 8,1 -4,1 13 7 S 1025,9 20 0,0
22.03.2019 04:00:00 8,3 -2,4 5 3 W 1026,0 20 -
22.03.2019 03:00:00 9,4 -2,3 15 8 SSE 1025,8 20 0,0
22.03.2019 02:00:00 10,2 -2,8 22 12 SE 1025,8 20 0,0
22.03.2019 01:00:00 10,5 -2,6 24 13 SE 1026,0 20 -
22.03.2019 00:00:00 11,5 -3,1 21 11 SE 1025,7 20 0,0
21.03.2019 23:00:00 11,7 -3,7 13 7 SSE 1025,4 20 0,0
21.03.2019 22:00:00 12,0 -3,4 15 8 SSE 1024,9 20 -
21.03.2019 21:00:00 12,1 -3,3 13 7 SSE 1024,5 20 0,0
21.03.2019 20:00:00 13,0 -3,3 9 5 SE 1023,6 20 0,0
21.03.2019 19:00:00 14,0 -3,8 13 7 SE 1023,0 20 -
21.03.2019 18:00:00 15,3 -4,6 8 4 S 1022,2 20 0,0
21.03.2019 17:00:00 16,6 -4,6 9 5 NE 1021,9 20 0,0
21.03.2019 16:00:00 16,4 -4,8 9 5 NE 1022,3 20 -
21.03.2019 15:00:00 16,5 -5,9 11 6 NNE 1022,7 20 0,0
21.03.2019 14:00:00 15,7 -4,3 9 5 E 1023,8 20 0,0
21.03.2019 13:00:00 15,2 -3,2 9 5 ESE 1024,8 19 -
21.03.2019 12:00:00 13,9 -3,0 11 6 E 1025,8 20 0,0
21.03.2019 11:00:00 12,8 -2,3 8 4 NE 1026,7 20 0,0
21.03.2019 10:00:00 11,5 -1,3 5 3 NE 1027,0 20 -
21.03.2019 09:00:00 9,1 -1,6 4 2 NNE 1027,4 20 0,0
21.03.2019 08:00:00 8,2 -3,3 18 10 SE 1027,1 20 0,0
21.03.2019 07:00:00 7,9 -3,6 22 12 SE 1026,4 20 -
21.03.2019 06:00:00 7,6 -4,5 13 7 SSE 1026,1 20 0,0
21.03.2019 05:00:00 8,3 -3,0 15 8 SSE 1025,8 20 0,0
21.03.2019 04:00:00 8,6 -3,0 18 10 SSE 1025,6 20 -
21.03.2019 03:00:00 9,2 -0,4 18 10 SE 1026,3 20 0,0
21.03.2019 02:00:00 9,8 0,1 18 10 SE 1026,2 20 0,0
21.03.2019 01:00:00 10,2 0,2 18 10 SE 1026,2 20 -
21.03.2019 00:00:00 10,7 0,7 11 6 SSE 1026,0 20 0,0
20.03.2019 23:00:00 11,4 -0,1 15 8 SE 1025,9 20 0,0
20.03.2019 22:00:00 12,4 -1,2 11 6 SSE 1025,1 20 -
20.03.2019 21:00:00 11,9 -2,4 9 5 S 1024,7 20 0,0
20.03.2019 20:00:00 13,0 -2,5 2 1 ENE 1023,8 20 0,0
20.03.2019 19:00:00 14,7 -3,2 5 3 ENE 1023,0 20 -
20.03.2019 18:00:00 15,5 -3,0 5 3 NW 1022,4 20 0,0
20.03.2019 17:00:00 15,0 -1,6 8 4 N 1022,4 20 0,0
20.03.2019 16:00:00 15,8 -1,3 9 5 N 1022,4 20 -
20.03.2019 15:00:00 16,8 -0,4 8 4 E 1022,7 20 0,0
20.03.2019 14:00:00 15,2 -0,6 5 3 ESE 1023,8 20 0,0
20.03.2019 13:00:00 15,6 0,9 8 4 E 1024,3 20 -
20.03.2019 12:00:00 14,3 1,9 4 2 NNE 1025,0 20 0,0
20.03.2019 11:00:00 12,3 1,3 5 3 NE 1025,6 20 0,0
20.03.2019 10:00:00 11,2 0,3 4 2 ENE 1026,0 20 -
20.03.2019 09:00:00 8,0 -0,8 4 2 NNE 1026,3 20 0,0
20.03.2019 08:00:00 5,3 -1,4 4 2 W 1026,4 20 0,0
20.03.2019 07:00:00 4,8 -1,9 2 1 SW 1026,1 20 -
20.03.2019 06:00:00 5,5 -1,4 8 4 WSW 1025,8 20 0,0
20.03.2019 05:00:00 6,4 -1,0 4 2 SW 1025,3 20 0,0
20.03.2019 04:00:00 7,6 -2,4 5 3 WSW 1025,1 20 -
20.03.2019 03:00:00 9,3 -3,0 11 6 S 1025,0 20 0,0
20.03.2019 02:00:00 8,9 -3,0 9 5 S 1025,2 20 0,0
20.03.2019 01:00:00 8,6 -3,0 4 2 SSW 1025,5 20 -
20.03.2019 00:00:00 10,2 -3,2 4 2 S 1025,2 20 0,0
19.03.2019 23:00:00 10,8 -3,0 2 1 S 1024,8 20 0,0
19.03.2019 22:00:00 11,4 -3,2 4 2 S 1024,2 20 -
19.03.2019 21:00:00 12,7 -3,2 8 4 WSW 1023,4 20 0,0
19.03.2019 20:00:00 13,5 -2,9 4 2 WNW 1022,5 20 0,0
19.03.2019 19:00:00 14,8 -2,6 5 3 N 1021,9 20 -
19.03.2019 18:00:00 15,6 -2,9 15 8 N 1021,2 20 0,0
19.03.2019 17:00:00 15,5 -2,5 9 5 NE 1021,0 20 0,0
19.03.2019 16:00:00 16,8 -1,8 11 6 NE 1020,7 20 -
19.03.2019 15:00:00 16,4 -1,7 11 6 NNE 1021,2 20 0,0
19.03.2019 14:00:00 15,6 -1,1 9 5 NE 1022,0 20 0,0
19.03.2019 13:00:00 15,1 -1,5 9 5 NNE 1023,0 20 -
19.03.2019 12:00:00 14,0 -2,5 9 5 N 1023,5 20 0,0
19.03.2019 11:00:00 13,0 -2,5 4 2 N 1023,9 20 0,0
19.03.2019 10:00:00 11,6 -0,6 4 2 ENE 1024,4 20 -
19.03.2019 09:00:00 11,3 -2,2 4 2 E 1023,9 20 0,0
19.03.2019 08:00:00 8,5 -3,7 8 4 WSW 1024,2 20 0,0
19.03.2019 07:00:00 7,3 -5,1 5 3 S 1024,2 20 -
19.03.2019 06:00:00 7,8 -4,3 8 4 W 1024,1 20 0,0
19.03.2019 05:00:00 7,8 -5,0 2 1 SSW 1023,2 20 0,0
19.03.2019 04:00:00 8,7 -5,2 4 2 SW 1023,3 20 -
19.03.2019 03:00:00 9,2 -5,1 5 3 SSW 1023,6 20 0,0
19.03.2019 02:00:00 10,0 -6,0 5 3 S 1023,3 20 0,0
19.03.2019 01:00:00 9,9 -4,9 5 3 S 1024,0 20 -
19.03.2019 00:00:00 11,1 -6,3 4 2 W 1023,8 20 0,0
18.03.2019 23:00:00 12,1 -5,4 4 2 S 1023,4 20 0,0
18.03.2019 22:00:00 12,8 -2,7 5 3 WSW 1023,0 20 -
18.03.2019 21:00:00 14,0 0,2 4 2 WSW 1022,1 20 0,0
18.03.2019 20:00:00 14,9 1,4 8 4 W 1021,1 20 0,0
18.03.2019 19:00:00 17,1 1,1 9 5 N 1019,9 20 -
18.03.2019 18:00:00 18,3 1,3 11 6 N 1019,1 20 0,0
18.03.2019 17:00:00 18,3 2,6 5 3 N 1018,9 20 0,0
18.03.2019 16:00:00 20,0 3,6 8 4 NNW 1018,7 20 -
18.03.2019 15:00:00 19,7 4,2 9 5 NNW 1019,1 20 0,0
18.03.2019 14:00:00 18,2 4,7 5 3 NNW 1020,1 20 0,0
18.03.2019 13:00:00 17,2 4,2 4 2 NNE 1020,8 20 -
18.03.2019 12:00:00 16,9 4,6 8 4 NNE 1021,0 20 0,0
18.03.2019 11:00:00 13,9 4,2 4 2 SSE 1021,8 20 0,0
18.03.2019 10:00:00 11,7 4,4 4 2 N 1022,2 20 -
18.03.2019 09:00:00 10,8 4,5 4 2 N 1021,6 20 0,0
18.03.2019 08:00:00 10,4 4,5 8 4 S 1020,2 20 0,0
18.03.2019 07:00:00 8,3 3,5 5 3 WSW 1020,4 20 -
18.03.2019 06:00:00 8,9 3,5 2 1 SSW 1019,9 20 0,0
18.03.2019 05:00:00 9,7 3,4 5 3 S 1019,2 20 0,0
18.03.2019 04:00:00 9,3 3,1 4 2 S 1019,5 20 -
18.03.2019 03:00:00 9,8 3,1 4 2 W 1019,7 20 0,0
18.03.2019 02:00:00 10,8 3,3 8 4 SW 1019,5 20 0,0
18.03.2019 01:00:00 12,4 3,3 9 5 S 1019,1 20 -
18.03.2019 00:00:00 12,7 3,6 8 4 SW 1019,5 20 0,0
17.03.2019 23:00:00 14,3 3,7 8 4 SW 1019,3 20 0,0
17.03.2019 22:00:00 15,1 3,2 18 10 W 1018,9 20 -
17.03.2019 21:00:00 17,3 1,7 15 8 W 1017,7 20 0,0
17.03.2019 20:00:00 17,2 1,2 8 4 WSW 1017,3 20 0,0
17.03.2019 19:00:00 18,6 0,7 5 3 WSW 1016,9 20 -
17.03.2019 18:00:00 20,4 -0,9 13 7 W 1016,4 20 0,0
17.03.2019 17:00:00 21,1 -0,9 13 7 NW 1016,2 20 0,0
17.03.2019 16:00:00 21,2 -1,4 11 6 WNW 1016,9 20 -
17.03.2019 15:00:00 21,1 -1,5 21 11 NW 1017,5 20 0,0
17.03.2019 14:00:00 20,7 -1,2 18 10 NNW 1018,4 20 0,0
17.03.2019 13:00:00 20,4 -1,4 13 7 WNW 1019,2 20 -
17.03.2019 12:00:00 18,8 2,6 18 10 WNW 1020,0 20 0,0
17.03.2019 11:00:00 17,5 5,4 4 2 NE 1020,5 20 0,0
17.03.2019 10:00:00 14,4 4,7 4 2 NNE 1021,2 20 -
17.03.2019 09:00:00 13,0 3,9 2 1 N 1020,8 20 0,0
17.03.2019 08:00:00 11,1 2,4 5 3 W 1020,4 20 0,0
17.03.2019 07:00:00 11,2 2,2 4 2 W 1020,1 20 -
17.03.2019 06:00:00 11,8 2,0 4 2 S 1019,9 20 0,0
17.03.2019 05:00:00 13,1 1,4 5 3 W 1019,4 20 0,0
17.03.2019 04:00:00 14,2 2,4 5 3 W 1019,2 20 -
17.03.2019 03:00:00 14,9 3,7 15 8 W 1019,4 20 0,0
17.03.2019 02:00:00 14,7 2,6 13 7 W 1019,5 20 0,0
17.03.2019 01:00:00 16,0 2,4 11 6 WNW 1019,4 20 -
17.03.2019 00:00:00 17,0 1,4 9 5 WSW 1019,3 20 0,0
16.03.2019 23:00:00 17,0 1,4 4 2 S 1019,6 20 0,0
16.03.2019 22:00:00 17,7 0,3 15 8 W 1019,5 20 -
16.03.2019 21:00:00 17,8 -2,0 16 9 W 1019,3 20 0,0
16.03.2019 20:00:00 18,7 -2,3 13 7 W 1018,5 20 0,0
16.03.2019 19:00:00 20,4 -1,4 9 5 WSW 1017,8 20 -
16.03.2019 18:00:00 22,8 -2,8 15 8 NW 1017,4 20 0,0

tt = temperature
td = dewpoint
ff = wind speed
dd = wind direction
ppp = reduced air pressure
vv = visibility
rr = precipitation

Next stations